Regional Weather Roundup
Issued by NWS Raleigh/Durham, NC

Home | Current Version | Previous Version | Text Only | Print | Product List | Glossary On
Versions: 1 2 3 4 5 6 7 8 9 10 11 12 13 14 15 16 17 18 19 20 21 22 23 24 25 26 27
000
ASUS42 KRAH 181110
RWRRAH
NORTH CAROLINA WEATHER ROUNDUP
NATIONAL WEATHER SERVICE RALEIGH NC
700 AM EDT FRI APR 18 2014

NOTE: "FAIR" INDICATES FEW OR NO CLOUDS BELOW 12,000 FEET WITH NO
SIGNIFICANT WEATHER AND/OR OBSTRUCTIONS TO VISIBILITY.

NCZ001-053-055-056-065-067-181200-
WESTERN NORTH CAROLINA

CITY           SKY/WX    TMP DP  RH WIND       PRES   REMARKS
ASHEVILLE      CLOUDY    39  34  82 CALM      30.37F
JEFFERSON      CLOUDY    37  25  63 CALM      30.37R
MORGANTON      CLOUDY    38  35  90 CALM      30.44S
HICKORY        CLOUDY    42  36  79 CALM      30.40R
RUTHERFORDTON  CLOUDY    44  31  59 NE6       30.39F
MOUNT AIRY     CLOUDY    42  37  82 CALM      30.41S
BOONE          CLOUDY    31  28  88 CALM      30.38S
$$

NCZ021-022-025-041-071-084-088-181200-
CENTRAL NORTH CAROLINA

CITY           SKY/WX    TMP DP  RH WIND       PRES   REMARKS
CHARLOTTE      CLOUDY    46  40  79 NE8       30.40R
GREENSBORO     CLOUDY    40  35  83 NE10      30.42R WCI  33
WINSTON-SALEM  CLOUDY    40  36  86 NE7       30.43S
RALEIGH-DURHAM MOCLDY    39  35  86 N6        30.43S WCI  35
FORT BRAGG     PTCLDY    41  38  86 N5        30.40R
FAYETTEVILLE   PTCLDY    42  38  85 NE12      30.39R
CHAPEL HILL    MOCLDY    39  35  86 N5        30.45R
BURLINGTON     MOCLDY    39  35  86 NE9       30.44R WCI  33
LAURINBURG     CLOUDY    45  39  79 NE9       30.38S
$$

NCZ011-015-027-028-043-044-047-080-103-181200-
NORTHEASTERN NORTH CAROLINA

CITY           SKY/WX    TMP DP  RH WIND       PRES   REMARKS
GREENVILLE     PTCLDY    39  37  93 N3        30.42R
WASHINGTON     CLOUDY    42  38  84 NE7       30.40S
ELIZABETH CITY CLOUDY    44  39  82 N13       30.44R
MANTEO         CLOUDY    46  43  91 NE18      30.42R
CAPE HATTERAS  CLOUDY    48  47  96 NE13G28   30.36S
$$

NCZ078-087-090-091-093-098-101-181200-
SOUTHEASTERN NORTH CAROLINA

CITY           SKY/WX    TMP DP  RH WIND       PRES   REMARKS
LUMBERTON      PTCLDY    44  39  82 NE9       30.37S
GOLDSBORO      PTCLDY    41  40  97 NE6       30.40R
KINSTON        PTCLDY    41  39  93 N6        30.42R
KENANSVILLE    PTCLDY    40  38  93 N7        30.41S
NEW BERN       CLOUDY    45  41  86 NE12      30.40S
CHERRY POINT   CLOUDY    47  42  83 N14       30.38S
BEAUFORT       CLOUDY    49  46  90 N15       30.35S
JACKSONVILLE   MOCLDY    43  41  93 N14       30.38R
WILMINGTON     MOCLDY    45  40  82 N9        30.35S
$$




USA.gov is the U.S. government's official web portal to all federal, state and local government web resources and services.